When you browse on this site, cookies collect data to enhance your experience and personalize the content and advertising you see.
Visit our Privacy Policy to learn more. By continuing to use the site, you agree to this use of cookies and data.
  • In Germany
  • List of Countries
  • For 7 days
  • Water Temperature
  • Weather Map
  • Weather Widgets
  • user-avatar
    Login

    Hourly Weather Mauritius

    Today, 23 September, Monday

    Time Temperature Precipitation Wind Pressure Humidity
    00:00 +20°C° 0.1 mm 8 mps 728 mmHg 81%
    01:00 +20°C° 0.1 mm 8 mps 728 mmHg 80%
    02:00 +20°C° 0.1 mm 8 mps 728 mmHg 80%
    03:00 +20°C° 0.1 mm 8 mps 727 mmHg 79%
    04:00 +20°C° 0 mm 7 mps 727 mmHg 80%
    05:00 +20°C° 0.2 mm 8 mps 728 mmHg 81%
    06:00 +20°C° 0.2 mm 8 mps 728 mmHg 81%
    07:00 +19°C° 0.2 mm 9 mps 728 mmHg 82%
    08:00 +19°C° 0.3 mm 9 mps 728 mmHg 80%
    09:00 +21°C° 0.3 mm 9 mps 729 mmHg 79%
    10:00 +21°C° 0 mm 9 mps 729 mmHg 75%
    11:00 +21°C° 0.1 mm 9 mps 728 mmHg 74%
    12:00 +21°C° 0.1 mm 9 mps 728 mmHg 73%
    13:00 +21°C° 0.1 mm 9 mps 728 mmHg 71%
    14:00 +21°C° 0 mm 9 mps 728 mmHg 71%
    15:00 +21°C° 0 mm 8 mps 728 mmHg 72%
    16:00 +20°C° 0 mm 8 mps 727 mmHg 72%
    17:00 +20°C° 0 mm 8 mps 728 mmHg 73%
    18:00 +18°C° 0 mm 8 mps 728 mmHg 74%
    19:00 +18°C° 0 mm 8 mps 728 mmHg 75%
    20:00 +18°C° 0 mm 8 mps 728 mmHg 74%
    21:00 +18°C° 0 mm 8 mps 729 mmHg 73%
    22:00 +18°C° 0 mm 7 mps 729 mmHg 73%
    23:00 +18°C° 0 mm 7 mps 728 mmHg 72%

    Tomorrow, 24 September, Tuesday

    Time Temperature Precipitation Wind Pressure Humidity
    00:00 +18°C° 0 mm 7 mps 728 mmHg 71%
    01:00 +18°C° 0 mm 7 mps 727 mmHg 70%
    02:00 +19°C° 0.1 mm 6 mps 727 mmHg 73%
    03:00 +19°C° 0.1 mm 6 mps 727 mmHg 76%
    04:00 +17°C° 0.1 mm 6 mps 727 mmHg 79%
    05:00 +17°C° 0.1 mm 6 mps 727 mmHg 77%
    06:00 +19°C° 0.1 mm 6 mps 727 mmHg 74%
    07:00 +19°C° 0.1 mm 6 mps 727 mmHg 72%
    08:00 +20°C° 0 mm 6 mps 727 mmHg 68%
    09:00 +20°C° 0 mm 6 mps 728 mmHg 64%
    10:00 +21°C° 0 mm 6 mps 728 mmHg 60%
    11:00 +22°C° 0 mm 6 mps 727 mmHg 58%
    12:00 +22°C° 0 mm 5 mps 727 mmHg 56%
    13:00 +23°C° 0 mm 5 mps 726 mmHg 54%
    14:00 +23°C° 0 mm 5 mps 726 mmHg 59%
    15:00 +22°C° 0 mm 5 mps 726 mmHg 65%
    16:00 +22°C° 0 mm 6 mps 725 mmHg 70%
    17:00 +21°C° 0.1 mm 6 mps 725 mmHg 73%
    18:00 +21°C° 0.1 mm 5 mps 725 mmHg 77%
    19:00 +20°C° 0.1 mm 5 mps 725 mmHg 81%
    20:00 +20°C° 0.2 mm 6 mps 726 mmHg 82%
    21:00 +20°C° 0.2 mm 6 mps 726 mmHg 83%
    22:00 +20°C° 0.2 mm 6 mps 726 mmHg 83%
    23:00 +20°C° 0.1 mm 6 mps 725 mmHg 84%

    Day after tomorrow, 25 September, Wednesday

    Time Temperature Precipitation Wind Pressure Humidity
    00:00 +20°C° 0.1 mm 5 mps 725 mmHg 86%
    01:00 +20°C° 0.1 mm 5 mps 725 mmHg 87%
    02:00 +20°C° 0.1 mm 5 mps 724 mmHg 87%
    03:00 +20°C° 0.1 mm 4 mps 724 mmHg 88%
    04:00 +19°C° 0.1 mm 4 mps 724 mmHg 89%
    05:00 +20°C° 0.1 mm 4 mps 724 mmHg 88%
    06:00 +20°C° 0.1 mm 4 mps 725 mmHg 87%
    07:00 +20°C° 0.1 mm 4 mps 725 mmHg 86%
    08:00 +21°C° 0.1 mm 4 mps 725 mmHg 81%
    09:00 +22°C° 0.1 mm 5 mps 725 mmHg 77%
    10:00 +23°C° 0.1 mm 5 mps 726 mmHg 72%
    11:00 +23°C° 0.1 mm 5 mps 725 mmHg 71%
    12:00 +23°C° 0.1 mm 6 mps 725 mmHg 70%
    13:00 +23°C° 0.1 mm 6 mps 725 mmHg 68%
    14:00 +23°C° 0 mm 5 mps 724 mmHg 67%
    15:00 +23°C° 0 mm 5 mps 724 mmHg 66%
    16:00 +23°C° 0 mm 4 mps 724 mmHg 66%
    17:00 +23°C° 0 mm 4 mps 724 mmHg 70%
    18:00 +22°C° 0 mm 4 mps 725 mmHg 75%
    19:00 +21°C° 0 mm 4 mps 725 mmHg 79%
    20:00 +21°C° 0 mm 4 mps 725 mmHg 81%
    21:00 +21°C° 0 mm 3 mps 725 mmHg 82%
    22:00 +20°C° 0 mm 3 mps 725 mmHg 84%
    23:00 +20°C° 0 mm 3 mps 725 mmHg 85%

    26 September, Thursday

    Time Temperature Precipitation Wind Pressure Humidity
    00:00 +20°C° 0 mm 3 mps 725 mmHg 86%
    01:00 +20°C° 0 mm 3 mps 725 mmHg 88%
    02:00 +20°C° 0 mm 3 mps 725 mmHg 88%
    03:00 +20°C° 0 mm 3 mps 725 mmHg 89%
    04:00 +19°C° 0 mm 3 mps 725 mmHg 90%
    05:00 +20°C° 0 mm 3 mps 725 mmHg 88%
    06:00 +20°C° 0 mm 3 mps 725 mmHg 87%
    07:00 +20°C° 0 mm 3 mps 726 mmHg 86%
    08:00 +21°C° 0 mm 3 mps 726 mmHg 80%
    09:00 +22°C° 0 mm 4 mps 726 mmHg 74%
    10:00 +25°C° 0 mm 4 mps 726 mmHg 68%
    11:00 +25°C° 0.1 mm 5 mps 726 mmHg 67%
    12:00 +25°C° 0.1 mm 5 mps 726 mmHg 66%
    13:00 +26°C° 0.1 mm 5 mps 726 mmHg 65%
    14:00 +25°C° 0.3 mm 5 mps 726 mmHg 68%
    15:00 +25°C° 0.3 mm 5 mps 725 mmHg 70%
    16:00 +23°C° 0.3 mm 6 mps 725 mmHg 73%
    17:00 +23°C° 0.2 mm 5 mps 726 mmHg 76%
    18:00 +22°C° 0.2 mm 5 mps 726 mmHg 79%
    19:00 +21°C° 0.2 mm 5 mps 727 mmHg 82%
    20:00 +21°C° 0.2 mm 5 mps 727 mmHg 83%
    21:00 +21°C° 0.2 mm 5 mps 727 mmHg 84%
    22:00 +21°C° 0.2 mm 5 mps 728 mmHg 85%
    23:00 +21°C° 0 mm 5 mps 727 mmHg 85%

    27 September, Friday

    Time Temperature Precipitation Wind Pressure Humidity
    00:00 +20°C° 0 mm 5 mps 727 mmHg 85%
    01:00 +20°C° 0 mm 5 mps 727 mmHg 85%
    02:00 +20°C° 0 mm 5 mps 727 mmHg 85%
    03:00 +20°C° 0 mm 5 mps 727 mmHg 85%
    04:00 +20°C° 0 mm 5 mps 726 mmHg 85%
    05:00 +20°C° 0 mm 5 mps 727 mmHg 84%
    06:00 +20°C° 0 mm 5 mps 727 mmHg 83%
    07:00 +21°C° 0 mm 6 mps 727 mmHg 82%
    08:00 +21°C° 0 mm 6 mps 727 mmHg 79%
    09:00 +22°C° 0 mm 6 mps 727 mmHg 76%
    10:00 +23°C° 0 mm 7 mps 728 mmHg 73%
    11:00 +23°C° 0 mm 7 mps 727 mmHg 71%
    12:00 +24°C° 0 mm 7 mps 727 mmHg 70%
    13:00 +24°C° 0 mm 7 mps 726 mmHg 69%
    14:00 +23°C° 0.1 mm 7 mps 726 mmHg 71%
    15:00 +23°C° 0.1 mm 7 mps 726 mmHg 73%
    16:00 +23°C° 0.1 mm 7 mps 725 mmHg 75%
    17:00 +22°C° 0 mm 7 mps 726 mmHg 77%
    18:00 +21°C° 0 mm 6 mps 726 mmHg 80%
    19:00 +21°C° 0 mm 6 mps 726 mmHg 82%
    20:00 +21°C° 0.1 mm 6 mps 727 mmHg 82%
    21:00 +21°C° 0.1 mm 6 mps 727 mmHg 82%
    22:00 +21°C° 0.1 mm 6 mps 727 mmHg 81%
    23:00 +20°C° 0 mm 6 mps 727 mmHg 81%

    28 September, Saturday

    Time Temperature Precipitation Wind Pressure Humidity
    00:00 +20°C° 0 mm 6 mps 727 mmHg 80%
    01:00 +20°C° 0 mm 6 mps 726 mmHg 80%
    02:00 +20°C° 0 mm 6 mps 726 mmHg 81%
    03:00 +19°C° 0 mm 6 mps 726 mmHg 82%
    04:00 +19°C° 0 mm 6 mps 725 mmHg 83%
    05:00 +19°C° 0 mm 6 mps 726 mmHg 82%
    06:00 +19°C° 0 mm 6 mps 726 mmHg 81%
    07:00 +19°C° 0 mm 6 mps 726 mmHg 81%
    08:00 +20°C° 0 mm 7 mps 726 mmHg 77%
    09:00 +21°C° 0 mm 7 mps 726 mmHg 73%
    10:00 +22°C° 0 mm 7 mps 727 mmHg 69%
    11:00 +22°C° 0 mm 7 mps 726 mmHg 68%
    12:00 +22°C° 0 mm 7 mps 726 mmHg 67%
    13:00 +23°C° 0 mm 6 mps 726 mmHg 65%
    14:00 +22°C° 0 mm 6 mps 726 mmHg 66%
    15:00 +22°C° 0 mm 6 mps 725 mmHg 67%
    16:00 +22°C° 0 mm 6 mps 725 mmHg 68%
    17:00 +21°C° 0 mm 6 mps 725 mmHg 70%
    18:00 +21°C° 0 mm 6 mps 726 mmHg 71%
    19:00 +20°C° 0 mm 6 mps 726 mmHg 73%
    20:00 +20°C° 0 mm 6 mps 726 mmHg 74%
    21:00 +20°C° 0 mm 6 mps 726 mmHg 74%
    22:00 +20°C° 0 mm 6 mps 726 mmHg 75%
    23:00 +20°C° 0 mm 6 mps 726 mmHg 76%
    Show more